Location: Newark
(35.5000°N, 109.0000°E)
Time: 20:00:29
(UTC+00:00)

N. Korean satellite - Pass Details

Date: 01 October 2020
Orbit: 452 x 505 km, 97.2° (Epoch: 28 October)

Event Time Altitude Azimuth Distance (km) Brightness Sun altitude
Rises 21:34:36 0° 26° (NNE) 2,551 10.7 -14.1°
Reaches altitude 10° 21:36:59 10° 40° (NE) 1,656 9.9 -13.6°
Maximum altitude 21:39:54 24° 96° (E) 1,026 9.2 -13.0°
Drops below altitude 10° 21:42:46 10° 151° (SSE) 1,620 9.5 -12.4°
Sets 21:45:04 0° 166° (SSE) 2,481 10.3 -11.9°
